Погода в Янтарном

Россия / Республика Крым     45°26′06″N   34°13′15″E
темп.,
°C
ветер,
м/с
пор.,
м/с
влажн.,
%
обл.,
%
осадки,
мм/ч
давл.,
гПа
погр.,
м
8 августа, пн
пн800:00+23с49560 0.0 1012141
03:00+23ссв49500 0.0 1013146
06:00+22ссв36530 0.0 1013103
09:00+31всв69260 0.0 10141062
12:00+35всв79190 0.0 10133480
15:00+35всв89150 0.0 10133168
18:00+33в710150 0.0 10141982
21:00+25св33350 0.0 101433
9 августа, вт
вт900:00+23ссв46450 0.0 101483
03:00+23ссв49400 0.0 1014127
06:00+21св34520 0.0 101456
09:00+31в58300 0.0 10141050
12:00+35в812170 0.0 10133110
15:00+35всв912150 0.0 10122891
18:00+33всв810170 0.0 10121961
21:00+25ссв4114320 0.0 1011172
10 августа, ср
ср1000:00+25ссв41146100 0.0 1010202
03:00+26св51139100 0.0 1010245
06:00+24ссв51250100 0.0 1010234
09:00+31всв1014295 0.0 10092215
12:00+34всв1214210 0.0 10092625
15:00+35всв10131997 0.0 10082684
18:00+33св8102027 0.0 10071543
21:00+28ссв41133100 0.0 1007233
11 августа, чт
чт1100:00+26с4103621 0.0 1006188
03:00+26ссв5104995 0.0 1005240
06:00+26ссв5966100 0.0 1005237
09:00+28всв6844100 0.1 1007758
12:00+32всв9103428 0.2 10071671
15:00+29всв794099 1.3 10081204
18:00+29св674028 0.5 10081040
21:00+23ссв34678 0.9 100956
12 августа, пт
пт1200:00+22сз396343 0.1 1009159
03:00+22ссв49640 0.1 1009174
06:00+21с36770 0.0 1009123
09:00+27ссв44570 0.0 1009801
12:00+32с34404 0.0 10091887
15:00+35св862990 0.0 10082821
18:00+31в764419 0.0 10081329
21:00+25всв47710 0.0 1010158